Weather History for Crystal River, FL

Change the Weather History Date:

Wednesday, May 8, 2013

  Actual Average (KBKV) Record (KBKV)
Temperature  
Mean Temperature 65 °F -  
Max Temperature 77 °F 85 °F 91 °F (2002)
Min Temperature 53 °F 58 °F 46 °F (2007)
Growing Degree Days 15 (Base 50)    
Moisture  
Dew Point 57 °F    
Average Humidity 75    
Maximum Humidity 94    
Minimum Humidity 50    
Precipitation  
Precipitation 0.00 in - - ()
Sea Level Pressure  
Sea Level Pressure 30.10 in    
Wind  
Wind Speed 2 mph (West)    
Max Wind Speed 13 mph    
Max Gust Speed 18 mph    
Visibility 10 miles    
Events      
Averages and records for this station are not official NWS values.
T = Trace of Precipitation, MM = Missing Value Source: NWS Daily Summary

Daily Weather History Graph

Daily Weather History Graph

Search for Another Location

Airport:

Trip Planner

Search our weather history database for the weather conditions in past years. The results will help you decide how hot, cold, wet, or windy it might be!

Date:

Astronomy

May. 08, 2013 Rise Set
Actual Time 6:43 AM EDT 8:10 PM EDT
Civil Twilight 6:18 AM EDT 8:35 PM EDT
Nautical Twilight 5:47 AM EDT 9:06 PM EDT
Astronomical Twilight 5:16 AM EDT 9:38 PM EDT
Moon 5:44 AM EDT (5/8) 7:11 PM EDT (5/8)
Length of Visible Light 14h 17m
Length of Day
13h 27m
Waning Crescent, 2% of the Moon is Illuminated
May 8
Waning Crescent
May 9
New
May 18
First Quarter
May 25
Full
May 31
Last Quarter

Hourly Weather History & Observations

Time (EDT) Temp. Dew Point Humidity Pressure Visibility Wind Dir Wind Speed Gust Speed Precip Events Conditions
12:15 AM 57.2 °F 53.6 °F 88% 30.06 in 10.0 mi Calm Calm - N/A   Clear
12:35 AM 55.4 °F 53.6 °F 94% 30.05 in 10.0 mi Calm Calm - N/A   Scattered Clouds
12:55 AM 55.4 °F 53.6 °F 94% 30.05 in 10.0 mi Calm Calm - N/A   Scattered Clouds
1:15 AM 55.4 °F 53.6 °F 94% 30.06 in 10.0 mi Calm Calm - N/A   Scattered Clouds
1:35 AM 55.4 °F 53.6 °F 94% 30.06 in 10.0 mi Calm Calm - N/A   Scattered Clouds
1:55 AM 53.6 °F 51.8 °F 94% 30.06 in 10.0 mi Calm Calm - N/A   Scattered Clouds
2:15 AM 53.6 °F 51.8 °F 94% 30.05 in 10.0 mi Calm Calm - N/A   Scattered Clouds
2:35 AM 53.6 °F 51.8 °F 94% 30.04 in 10.0 mi Calm Calm - N/A   Scattered Clouds
2:55 AM 53.6 °F 51.8 °F 94% 30.04 in 10.0 mi Calm Calm - N/A   Scattered Clouds
3:15 AM 53.6 °F 51.8 °F 94% 30.04 in 10.0 mi Calm Calm - N/A   Scattered Clouds
3:35 AM 53.6 °F 51.8 °F 94% 30.04 in 10.0 mi Calm Calm - N/A   Clear
3:55 AM 53.6 °F 51.8 °F 94% 30.04 in 10.0 mi Calm Calm - N/A   Scattered Clouds
4:15 AM 53.6 °F 51.8 °F 94% 30.04 in 10.0 mi Calm Calm - N/A   Scattered Clouds
4:35 AM 53.6 °F 51.8 °F 94% 30.05 in 10.0 mi Calm Calm - N/A   Mostly Cloudy
4:55 AM 53.6 °F 51.8 °F 94% 30.05 in 10.0 mi Calm Calm - N/A   Mostly Cloudy
5:15 AM 53.6 °F 51.8 °F 94% 30.05 in 10.0 mi Calm Calm - N/A   Scattered Clouds
5:35 AM 53.6 °F 51.8 °F 94% 30.05 in 10.0 mi Calm Calm - N/A   Mostly Cloudy
5:55 AM 53.6 °F 51.8 °F 94% 30.05 in 10.0 mi Calm Calm - N/A   Mostly Cloudy
6:15 AM 53.6 °F 51.8 °F 94% 30.06 in 10.0 mi Calm Calm - N/A   Scattered Clouds
6:35 AM 53.6 °F 51.8 °F 94% 30.06 in 10.0 mi Calm Calm - N/A   Mostly Cloudy
6:55 AM 53.6 °F 51.8 °F 94% 30.08 in 10.0 mi Calm Calm - N/A   Mostly Cloudy
7:15 AM 55.4 °F 53.6 °F 94% 30.08 in 10.0 mi Calm Calm - N/A   Scattered Clouds
7:35 AM 55.4 °F 53.6 °F 94% 30.09 in 10.0 mi Calm Calm - N/A   Scattered Clouds
7:55 AM 60.8 °F 59.0 °F 94% 30.10 in 10.0 mi Calm Calm - N/A   Mostly Cloudy
8:15 AM 62.6 °F 59.0 °F 88% 30.11 in 10.0 mi Calm Calm - N/A   Mostly Cloudy
8:35 AM 64.4 °F 59.0 °F 83% 30.11 in 10.0 mi Calm Calm - N/A   Scattered Clouds
8:55 AM 68.0 °F 60.8 °F 78% 30.12 in 10.0 mi Calm Calm - N/A   Clear
9:15 AM 69.8 °F 60.8 °F 73% 30.12 in 10.0 mi Calm Calm - N/A   Scattered Clouds
9:35 AM 71.6 °F 59.0 °F 64% 30.12 in 10.0 mi Calm Calm - N/A   Scattered Clouds
9:55 AM 69.8 °F 59.0 °F 68% 30.13 in 10.0 mi WSW 4.6 mph - N/A   Scattered Clouds
10:15 AM 71.6 °F 59.0 °F 64% 30.13 in 10.0 mi WNW 4.6 mph - N/A   Scattered Clouds
10:35 AM 73.4 °F 59.0 °F 61% 30.13 in 10.0 mi West 5.8 mph - N/A   Scattered Clouds
10:55 AM 73.4 °F 59.0 °F 61% 30.13 in 10.0 mi West 5.8 mph - N/A   Scattered Clouds
11:15 AM 73.4 °F 59.0 °F 61% 30.13 in 10.0 mi NW 4.6 mph - N/A   Scattered Clouds
11:35 AM 75.2 °F 59.0 °F 57% 30.14 in 10.0 mi West 5.8 mph - N/A   Scattered Clouds
11:55 AM 75.2 °F 59.0 °F 57% 30.14 in 10.0 mi WNW 6.9 mph - N/A   Scattered Clouds
12:15 PM 75.2 °F 59.0 °F 57% 30.13 in 10.0 mi WNW 5.8 mph - N/A   Clear
12:35 PM 77.0 °F 59.0 °F 54% 30.13 in 10.0 mi WNW 6.9 mph - N/A   Scattered Clouds
12:55 PM 77.0 °F 59.0 °F 54% 30.13 in 10.0 mi WNW 6.9 mph - N/A   Scattered Clouds
1:15 PM 77.0 °F 59.0 °F 54% 30.12 in 10.0 mi West 9.2 mph - N/A   Scattered Clouds
1:35 PM 77.0 °F 59.0 °F 54% 30.12 in 10.0 mi West 8.1 mph 16.1 mph N/A   Scattered Clouds
1:55 PM 77.0 °F 59.0 °F 54% 30.12 in 10.0 mi West 8.1 mph 16.1 mph N/A   Mostly Cloudy
2:15 PM 77.0 °F 59.0 °F 54% 30.12 in 10.0 mi West 9.2 mph 16.1 mph N/A   Scattered Clouds
2:35 PM 77.0 °F 57.2 °F 50% 30.12 in 10.0 mi West 8.1 mph 17.3 mph N/A   Scattered Clouds
2:55 PM 77.0 °F 57.2 °F 50% 30.12 in 10.0 mi WSW 10.4 mph 16.1 mph N/A   Scattered Clouds
3:15 PM 77.0 °F 57.2 °F 50% 30.12 in 10.0 mi West 9.2 mph 16.1 mph N/A   Clear
3:35 PM 77.0 °F 57.2 °F 50% 30.11 in 10.0 mi West 9.2 mph 16.1 mph N/A   Clear
3:55 PM 77.0 °F 57.2 °F 50% 30.11 in 10.0 mi West 9.2 mph 17.3 mph N/A   Clear
4:15 PM 77.0 °F 59.0 °F 54% 30.11 in 10.0 mi West 12.7 mph 18.4 mph N/A   Clear
4:35 PM 77.0 °F 59.0 °F 54% 30.10 in 10.0 mi WSW 8.1 mph 16.1 mph N/A   Clear
4:55 PM 75.2 °F 59.0 °F 57% 30.10 in 10.0 mi West 11.5 mph 18.4 mph N/A   Clear
5:15 PM 77.0 °F 59.0 °F 54% 30.10 in 10.0 mi West 10.4 mph 16.1 mph N/A   Scattered Clouds
5:35 PM 75.2 °F 59.0 °F 57% 30.10 in 10.0 mi West 11.5 mph - N/A   Scattered Clouds
5:55 PM 75.2 °F 59.0 °F 57% 30.10 in 10.0 mi West 10.4 mph - N/A   Clear
6:15 PM 73.4 °F 57.2 °F 57% 30.10 in 10.0 mi West 10.4 mph 16.1 mph N/A   Clear
6:35 PM 73.4 °F 59.0 °F 61% 30.10 in 10.0 mi West 11.5 mph - N/A   Clear
6:55 PM 73.4 °F 59.0 °F 61% 30.10 in 10.0 mi WSW 10.4 mph - N/A   Clear
7:15 PM 73.4 °F 59.0 °F 61% 30.10 in 10.0 mi WSW 9.2 mph - N/A   Clear
7:35 PM 71.6 °F 59.0 °F 64% 30.10 in 10.0 mi West 5.8 mph - N/A   Clear
7:55 PM 69.8 °F 59.0 °F 68% 30.11 in 10.0 mi WSW 6.9 mph - N/A   Clear
8:15 PM 69.8 °F 59.0 °F 68% 30.11 in 10.0 mi West 4.6 mph - N/A   Clear
8:35 PM 68.0 °F 59.0 °F 73% 30.11 in 10.0 mi West 3.5 mph - N/A   Clear
8:55 PM 68.0 °F 59.0 °F 73% 30.12 in 10.0 mi WSW 3.5 mph - N/A   Clear
9:15 PM 66.2 °F 59.0 °F 78% 30.12 in 10.0 mi Calm Calm - N/A   Clear
9:35 PM 64.4 °F 59.0 °F 83% 30.12 in 10.0 mi Calm Calm - N/A   Clear
9:55 PM 64.4 °F 59.0 °F 83% 30.13 in 10.0 mi Calm Calm - N/A   Clear
10:15 PM 62.6 °F 59.0 °F 88% 30.13 in 10.0 mi Calm Calm - N/A   Clear
10:35 PM 62.6 °F 59.0 °F 88% 30.14 in 10.0 mi Calm Calm - N/A   Clear
11:15 PM 60.8 °F 57.2 °F 88% 30.15 in 10.0 mi Calm Calm - N/A   Clear
11:35 PM 60.8 °F 57.2 °F 88% 30.15 in 10.0 mi Calm Calm - N/A   Clear
11:55 PM 60.8 °F 57.2 °F 88% 30.15 in 10.0 mi Calm Calm - N/A   Clear